DW3400 Weather Reports


time (UTC)temp
C
wind
direction
speed
KPH
gust
KPH
rain 1hr
cm
rain 24hr
cm
rain mn
cm
humidity
%
barometer
mb
20260507172003 13 193 1.6 4.8 0.00 0.00 0.00 48 1020.7
20260507171504 13 199 3.2 8.0 0.00 0.00 0.00 47 1020.8
20260507170503 13 128 3.2 4.8 0.00 0.00 0.00 49 1020.7
20260507165504 13 114 3.2 4.8 0.00 0.00 0.00 50 1020.6
20260507165003 13 107 3.2 4.8 0.00 0.00 0.00 49 1020.6
20260507164504 13 115 3.2 8.0 0.00 0.00 0.00 49 1020.6
20260507163004 13 124 4.8 9.7 0.00 0.00 0.00 46 1020.6
20260507162003 13 175 3.2 11.3 0.00 0.00 0.00 46 1020.6
20260507155004 13 94 4.8 16.1 0.00 0.00 0.00 49 1020.4
20260507154503 13 109 4.8 12.9 0.00 0.00 0.00 48 1020.4
20260507154005 13 109 6.4 12.9 0.00 0.00 0.00 49 1020.4
20260507153504 13 103 8.0 12.9 0.00 0.00 0.00 48 1020.4
20260507153004 13 131 4.8 12.9 0.00 0.00 0.00 47 1020.3
20260507151004 13 115 9.7 16.1 0.00 0.00 0.00 52 1020.4
20260507150004 13 104 8.0 19.3 0.00 0.00 0.00 55 1020.3
20260507145503 13 80 8.0 14.5 0.00 0.00 0.00 52 1020.3
20260507143004 13 111 8.0 16.1 0.00 0.00 0.00 51 1020.1
20260507141004 13 100 9.7 19.3 0.00 0.00 0.00 49 1020.2
20260507135504 13 61 6.4 14.5 0.00 0.00 0.00 52 1020.2
20260507135003 13 64 6.4 14.5 0.00 0.00 0.00 52 1020.2
20260507134504 13 83 8.0 16.1 0.00 0.00 0.00 54 1020.2
20260507134004 13 95 8.0 19.3 0.00 0.00 0.00 53 1020.2
20260507133504 13 88 11.3 14.5 0.00 0.00 0.00 50 1020.2
20260507132504 13 54 9.7 14.5 0.00 0.00 0.00 53 1020.2
20260507131504 13 92 8.0 19.3 0.00 0.00 0.00 54 1020.0
20260507131004 12 103 11.3 19.3 0.00 0.00 0.00 53 1020.1
20260507130503 13 92 11.3 25.7 0.00 0.00 0.00 52 1020.2
20260507125503 13 97 9.7 19.3 0.00 0.00 0.00 56 1020.1
20260507125004 13 100 9.7 19.3 0.00 0.00 0.00 53 1020.0
20260507124003 13 66 8.0 20.9 0.00 0.00 0.00 53 1020.1
20260507123004 13 89 6.4 19.3 0.00 0.00 0.00 58 1020.0
20260507122504 13 92 9.7 22.5 0.00 0.00 0.00 56 1019.9
20260507122004 13 90 12.9 19.3 0.00 0.00 0.00 55 1019.9
20260507121504 13 72 9.7 22.5 0.00 0.00 0.00 57 1019.8
20260507121004 13 92 14.5 22.5 0.00 0.00 0.00 57 1019.9
20260507113504 12 81 9.7 22.5 0.00 0.00 0.00 54 1019.8
20260507113004 12 85 11.3 20.9 0.00 0.00 0.00 60 1019.7
20260507112504 12 63 11.3 20.9 0.00 0.00 0.00 58 1019.6
20260507112004 12 51 8.0 20.9 0.00 0.00 0.00 60 1019.6
20260507111004 12 82 14.5 25.7 0.00 0.00 0.00 60 1019.5
20260507110004 13 104 8.0 20.9 0.00 0.00 0.00 63 1019.5
20260507102504 12 79 9.7 16.1 0.00 0.00 0.00 68 1019.5
20260507101004 12 57 6.4 14.5 0.00 0.00 0.00 70 1019.2
20260507100503 12 71 11.3 20.9 0.00 0.00 0.00 69 1019.3
20260507094504 12 51 4.8 14.5 0.00 0.00 0.00 68 1019.2
20260507094004 12 94 8.0 16.1 0.00 0.00 0.00 70 1019.2
20260507093004 12 114 8.0 14.5 0.00 0.00 0.00 70 1019.2
20260507091504 12 123 8.0 14.5 0.00 0.00 0.00 70 1018.9
20260507091005 12 53 4.8 12.9 0.00 0.00 0.00 70 1019.0
20260507090503 12 95 9.7 12.9 0.00 0.00 0.00 67 1018.9
20260507085504 12 83 3.2 12.9 0.00 0.00 0.00 66 1018.8
20260507085004 12 88 4.8 12.9 0.00 0.00 0.00 66 1018.8
20260507084004 12 93 4.8 14.5 0.00 0.00 0.00 68 1018.6
20260507083503 12 50 4.8 11.3 0.00 0.00 0.00 65 1018.6
20260507083004 12 51 4.8 11.3 0.00 0.00 0.00 64 1018.6
20260507082504 12 43 4.8 19.3 0.00 0.00 0.00 64 1018.6
20260507081504 11 44 8.0 16.1 0.00 0.00 0.00 65 1018.5
20260507081003 11 72 4.8 16.1 0.00 0.00 0.00 68 1018.5
20260507080004 11 36 4.8 11.3 0.00 0.00 0.00 69 1018.4
20260507074503 11 77 4.8 19.3 0.00 0.00 0.00 69 1018.4
20260507073503 11 60 4.8 12.9 0.00 0.00 0.00 70 1018.3
20260507072004 11 44 3.2 11.3 0.00 0.00 0.00 72 1018.4
20260507071004 10 66 4.8 12.9 0.00 0.00 0.00 74 1018.4
20260507064003 9 58 9.7 19.3 0.00 0.00 0.00 76 1018.1
20260507062003 8 359 4.8 12.9 0.00 0.00 0.00 79 1018.0
20260507061504 8 355 3.2 14.5 0.00 0.00 0.00 81 1018.0
20260507061004 8 39 8.0 12.9 0.00 0.00 0.00 80 1018.0
20260507060003 8 64 9.7 14.5 0.00 0.00 0.00 82 1017.9
20260507055004 8 8 3.2 9.7 0.00 0.00 0.00 83 1017.9
20260507054004 8 25 1.6 4.8 0.00 0.00 0.00 83 1017.8
20260507053504 8 300 0.0 4.8 0.00 0.00 0.00 84 1017.7
20260507053005 8 344 1.6 4.8 0.00 0.00 0.00 84 1017.7
20260507050504 6 5 0.0 3.2 0.00 0.00 0.00 90 1017.6
20260507050004 6 6 1.6 3.2 0.00 0.00 0.00 90 1017.6
20260507045504 6 314 0.0 1.6 0.00 0.00 0.00 91 1017.6
20260507044504 5 307 0.0 0.0 0.00 0.00 0.00 90 1017.5
20260507041504 4 297 0.0 1.6 0.00 0.00 0.00 90 1017.2
20260507040503 4 283 0.0 1.6 0.00 0.00 0.00 90 1017.0
20260507040004 4 283 0.0 1.6 0.00 0.00 0.00 91 1017.1
20260507035504 3 283 1.6 4.8 0.00 0.00 0.00 91 1017.0
20260507034504 3 301 1.6 3.2 0.00 0.00 0.00 91 1016.9
20260507034004 3 307 1.6 3.2 0.00 0.00 0.00 90 1016.8
20260507031004 3 318 0.0 1.6 0.00 0.00 0.00 89 1016.6
20260507025004 4 321 0.0 1.6 0.00 0.00 0.00 89 1016.4
20260507024504 4 321 0.0 3.2 0.00 0.00 0.00 89 1016.3
20260507024003 4 304 1.6 1.6 0.00 0.00 0.00 89 1016.3
20260507023004 5 314 1.6 4.8 0.00 0.00 0.00 89 1016.3
20260507022503 5 300 1.6 3.2 0.00 0.00 0.00 88 1016.3
20260507022003 5 298 1.6 3.2 0.00 0.00 0.00 88 1016.2
20260507020504 5 298 1.6 3.2 0.00 0.00 0.00 86 1016.2
20260507015504 6 348 1.6 4.8 0.00 0.00 0.00 85 1016.1
20260507014004 7 46 3.2 8.0 0.00 0.00 0.00 84 1016.1
20260507013504 7 46 1.6 4.8 0.00 0.00 0.00 84 1016.1
20260507013005 7 53 4.8 12.9 0.00 0.00 0.00 84 1016.1
20260507012004 7 65 3.2 11.3 0.00 0.00 0.00 85 1016.0
20260507011004 6 71 3.2 8.0 0.00 0.00 0.00 85 1016.0
20260507005004 7 87 4.8 9.7 0.00 0.00 0.00 85 1016.0
20260507003504 7 61 3.2 11.3 0.00 0.00 0.00 85 1015.8
20260507003004 7 68 3.2 11.3 0.00 0.00 0.00 84 1015.7
20260506234004 7 50 9.7 19.3 0.00 0.00 0.00 83 1015.6
20260506233504 7 60 6.4 19.3 0.00 0.00 0.00 83 1015.6
20260506233004 7 59 9.7 19.3 0.00 0.00 0.00 83 1015.6
20260506232504 7 60 6.4 19.3 0.00 0.00 0.00 83 1015.5
20260506232004 7 50 8.0 19.3 0.00 0.00 0.00 84 1015.6
20260506230504 7 55 8.0 19.3 0.00 0.00 0.00 84 1015.7
20260506225504 7 52 9.7 19.3 0.00 0.00 0.00 84 1015.7
20260506224504 7 52 4.8 12.9 0.00 0.00 0.00 84 1015.7
20260506222004 7 50 11.3 20.9 0.00 0.00 0.00 84 1015.5
20260506221003 7 64 9.7 19.3 0.00 0.00 0.00 84 1015.6
20260506214003 7 60 6.4 14.5 0.00 0.00 0.00 84 1015.3
20260506212003 7 63 9.7 19.3 0.00 0.00 0.00 84 1015.3
20260506211504 7 61 8.0 12.9 0.00 0.00 0.00 84 1015.3
20260506211004 7 65 6.4 12.9 0.00 0.00 0.00 84 1015.3
20260506205504 7 68 6.4 19.3 0.00 0.00 0.00 83 1015.3
20260506202504 7 89 8.0 22.5 0.00 0.00 0.00 84 1015.3
20260506200004 7 67 11.3 20.9 0.00 0.00 0.00 85 1015.0
20260506195503 7 62 11.3 20.9 0.00 0.00 0.00 85 1015.0
20260506195004 7 78 8.0 25.7 0.00 0.00 0.00 85 1014.9
20260506194504 7 64 8.0 19.3 0.00 0.00 0.00 85 1015.0
20260506194004 7 66 11.3 24.1 0.00 0.00 0.00 85 1015.0
20260506193504 7 65 11.3 27.4 0.00 0.00 0.00 85 1014.9
20260506193004 7 66 8.0 19.3 0.00 0.00 0.00 85 1015.1
20260506192004 7 78 11.3 22.5 0.00 0.00 0.00 85 1015.1
20260506191504 7 67 9.7 25.7 0.00 0.00 0.00 84 1015.1
20260506191003 7 76 9.7 22.5 0.00 0.00 0.00 84 1015.1
20260506185504 7 90 11.3 20.9 0.00 0.00 0.00 84 1014.8
20260506183504 7 77 9.7 22.5 0.00 0.00 0.00 84 1014.6
20260506183005 7 75 12.9 24.1 0.00 0.00 0.00 84 1014.5
20260506182504 7 88 11.3 24.1 0.00 0.00 0.00 84 1014.5
20260506182004 7 91 14.5 29.0 0.00 0.00 0.00 84 1014.4
20260506181003 7 76 11.3 27.4 0.00 0.00 0.00 83 1014.5
20260506180504 7 86 9.7 20.9 0.00 0.00 0.00 83 1014.4
20260506175504 7 75 14.5 25.7 0.00 0.00 0.00 82 1014.3
20260506174504 8 82 11.3 25.7 0.00 0.00 0.00 82 1014.3